This is the latest recevied weather packets stored in our database for station/object K4DNM. If no packets are shown the sender has not sent any weather packets the latest 10 day(s).
| Time | Temp. | Humidity | Pressure | Rain* | Wind** | Luminosity | Snow |
|---|---|---|---|---|---|---|---|
| 1778238012 | 9.44° C | 99% | 1014.7 hPa | 0 mm | - | 32 W/m² | - |
| 1778237712 | 9.44° C | 99% | 1014.6 hPa | 0 mm | - | 22 W/m² | - |
| 1778237398 | 9.44° C | 99% | 1014.6 hPa | 0 mm | - | 20 W/m² | - |
| 1778237096 | 9.44° C | 99% | 1014.5 hPa | 0 mm | - | 17 W/m² | - |
| 1778236797 | 9.44° C | 99% | 1014.4 hPa | 0 mm | - | 13 W/m² | - |
| 1778236496 | 9.44° C | 99% | 1014.4 hPa | 0 mm | - | 12 W/m² | - |
| 1778236197 | 9.44° C | 99% | 1014.2 hPa | 0 mm | - | 9 W/m² | - |
| 1778235897 | 9.44° C | 99% | 1014.1 hPa | 0 mm | - | 5 W/m² | - |
| 1778235597 | 9.44° C | 99% | 1014 hPa | 0 mm | - | 4 W/m² | - |
| 1778235357 | 9.44° C | 99% | 1014.1 hPa | 0 mm | - | 2 W/m² | - |
| 1778234996 | 9.44° C | 99% | 1013.9 hPa | 0 mm | - | 0 W/m² | - |
| 1778234680 | 9.44° C | 99% | 1013.9 hPa | 0 mm | - | 0 W/m² | - |
| 1778234380 | 9.44° C | 99% | 1013.9 hPa | 0 mm | - | 0 W/m² | - |
| 1778234080 | 9.44° C | 99% | 1013.8 hPa | 0 mm | - | 0 W/m² | - |
| 1778233781 | 10° C | 99% | 1013.8 hPa | 0 mm | - | 0 W/m² | - |
| 1778233479 | 10° C | 99% | 1013.8 hPa | 0 mm | - | 0 W/m² | - |
| 1778233181 | 10° C | 99% | 1013.7 hPa | 0 mm | - | 0 W/m² | - |
| 1778232881 | 10° C | 99% | 1013.7 hPa | 0 mm | - | 0 W/m² | - |
| 1778232581 | 10° C | 99% | 1013.7 hPa | 0 mm | - | 0 W/m² | - |
| 1778232342 | 10° C | 99% | 1013.6 hPa | 0 mm | - | 0 W/m² | - |
| 1778231966 | 10° C | 99% | 1013.6 hPa | 0 mm | - | 0 W/m² | - |
| 1778231728 | 10° C | 99% | 1013.6 hPa | 0 mm | - | 0 W/m² | - |
| 1778231366 | 10° C | 100% | 1013.5 hPa | 0 mm | - | 0 W/m² | - |
| 1778231070 | 10.56° C | 99% | 1013.5 hPa | 0 mm | - | 0 W/m² | - |
| 1778230768 | 10.56° C | 99% | 1013.6 hPa | 0 mm | - | 0 W/m² | - |
* Rain latest hour (hover to see other rain measurements)
** Current wind speed in m/s (hover to see current wind gust speed)